Retour au catalogue

DELTA 1 DEB

ActifUNKNOWN
NORAD 10650·DEBRIS·🇺🇸 United States

Lancé Jul 29, 1976 depuis Vandenberg Space Force Base

Loading…

Prochains Passages (prochaines 24 heures)

TLE

FraisSource: Space-Track

Époque: Sep 13, 2026, 04:31 UTC

1 10650U 76077L   26256.18862922  .00000082  00000-0  19402-2 0  9996
2 10650 102.0895 334.3189 0437017 235.5247 147.5132 11.57492062121307

Suivez DELTA 1 DEB en temps réel avec AllMySat

Download on the App Store